Simultaneous Nadir Overpasses (SNOs) Predictions

Prediction of SNOs between GOES-15 and FY3D Satellite Orbit:

Table of predicted SNOs for the next 14.0 days since TLE Epoch: 11/13/2025
Index Date Time (GOES-15) GOES-15 Lat,Lon FY3D Lat,Lon Distance(km) Time Diff (sec)
1 11/14/2025 11:27:27 -0.27, 61.88 -0.87, 59.16 309.85 80
2 11/15/2025 11:05:55 -0.22, 61.89 0.20, 63.73 209.74 80
3 11/16/2025 23:30:10 0.31, 61.83 1.04, 58.57 370.91 80
4 11/17/2025 23:08:39 0.26, 61.85 -0.03, 63.15 147.57 80
5 11/19/2025 11:33:00 -0.36, 61.99 -1.29, 57.98 458.41 80
6 11/20/2025 11:11:29 -0.31, 62.01 -0.21, 62.55 60.70 80
7 11/22/2025 23:14:13 0.35, 61.98 0.34, 61.96 2.71 80
8 11/25/2025 11:19:42 -0.40, 62.17 -0.60, 61.37 91.44 80
9 11/26/2025 10:58:10 -0.35, 62.20 0.49, 65.94 427.06 80
